Regional Weather Roundup
Issued by NWS Charleston, WV

Home | Current Version | Previous Version | Text Only | Print | Product List | Glossary On
Versions: 1 2 3 4 5 6 7 8 9 10 11 12 13 14 15 16 17 18 19 20 21 22 23 24 25 26 27 28 29 30 31 32 33 34 35 36 37 38 39 40 41 42 43 44 45 46 47 48 49 50
000
ASUS41 KRLX 021410
RWRRLX
West Virginia Regional Weather Roundup
National Weather Service Charleston WV
1000 AM EDT WED SEP 02 2015

Note: "fair" indicates few or no clouds below 12,000 feet with no
significant weather and/or obstructions to visibility.

WVZ003-021500-
Northern Panhandle of West Virginia

CITY           SKY/WX    TMP DP  RH WIND       PRES   REMARKS
WHEELING       MOSUNNY   75  68  78 W6        30.13S
$$

WVZ009-021500-
Northwest West Virginia

CITY           SKY/WX    TMP DP  RH WIND       PRES   REMARKS
PARKERSBURG    SUNNY     78  68  71 CALM      30.16S
$$

WVZ006-021500-
Western West Virginia

CITY           SKY/WX    TMP DP  RH WIND       PRES   REMARKS
HUNTINGTON     SUNNY     76  69  79 SW3       30.14F
$$

WVZ015-021500-
West Central West Virginia

CITY           SKY/WX    TMP DP  RH WIND       PRES   REMARKS
CHARLESTON     SUNNY     76  67  73 CALM      30.15S
$$

WVZ022-031-021500-
North Central West Virginia

CITY           SKY/WX    TMP DP  RH WIND       PRES   REMARKS
CLARKSBURG     PTSUNNY   76  68  76 VRB5      30.14F
MORGANTOWN     PTSUNNY   76  65  68 VRB3      30.15S
$$

WVZ025-035-042-045-021500-
Southern West Virginia

CITY           SKY/WX    TMP DP  RH WIND       PRES   REMARKS
BECKLEY        SUNNY     74  63  68 CALM      30.23S
LOGAN            N/A     75  68  78 CALM      30.18S
BLUEFIELD      PTSUNNY   75  63  66 W3        30.25S
LEWISBURG      FOG       66  65  94 CALM      30.21F VSB 3/4
$$

WVZ047-021500-
Northern Mountains of West Virginia

CITY           SKY/WX    TMP DP  RH WIND       PRES   REMARKS
ELKINS         MOSUNNY   74  66  76 CALM      30.19F
$$

WVZ052-021500-
Eastern Panhandle of West Virginia

CITY           SKY/WX    TMP DP  RH WIND       PRES   REMARKS
MARTINSBURG    PTSUNNY   77  66  68 CALM      30.08F
PETERSBURG     CLOUDY    72  69  88 CALM      30.13F
$$


USA.gov is the U.S. government's official web portal to all federal, state and local government web resources and services.